Back to catalog

STARLINK-3989

AliveCommunicationsVLEO
NORAD 52630·PAYLOAD·🇺🇸 United States

Launched May 14, 2022 from Cape Canaveral Space Force Station

Loading…

Next Passes (next 24 hours)

TLE

FreshSource: CelesTrak SupGP

Epoch: Sep 14, 2026, 14:37 UTC

1 52630C 22052AJ  26257.60951389  .00028415  00000+0  91377-3 0  2576
2 52630  53.1569 127.2026 0001429  88.4290  47.0006 15.31687353    14

Track STARLINK-3989 in real time with AllMySat

Download on the App Store